Location: Ellingshausen
(50.5460°N, 10.4723°E)
Time: 23:04:28
(UTC+00:00)

Gbstr 26 Del rocket - Pass Details

Date: 18 January 2026
Orbit: 490 x 1217 km, 51.8° (Epoch: 9 February)

Event Time Altitude Azimuth Distance (km) Brightness Sun altitude
Exits shadow 06:15:36 - 263° (W) 3,446 6.3 -8.6°
Reaches altitude 10° 06:16:54 10° 264° (W) 2,995 6.0 -8.4°
Maximum altitude 06:24:11 82° 353° (N) 1,006 4.1 -7.3°
Drops below altitude 10° 06:30:12 10° 81° (E) 2,503 7.2 -6.5°
Sets 06:32:29 0° 83° (E) 3,331 7.9 -6.1°
